This demonstration page uses our WeatherBlox Daily Observations layout. Learn more.

Left ArrowRight Arrow

34.02893, -84.19858

Hourly Observations for November 11, 2019

Temp ( °F °C ) Dew Point ( °F °C ) Humidity (%) Winds ( mph kmh ) Pressure ( in mb ) Visibility ( mi km ) Precip ( " mm )
12:53 am 00:53 Clear with Mist and Fog 40 4.4 39 3.9 97 97 Calm 30.16 1021 6 10 0.00 0.00
1:53 am 01:53 Clear with Mist and Fog 41 5 39 3.9 93 93 Calm 30.14 1021 6 10 0.00 0.00
2:53 am 02:53 Clear 39 3.9 38 3.3 96 96 Calm 30.14 1021 7 11 0.00 0.00
3:53 am 03:53 Clear 40 4.4 38 3.3 93 93 Calm 30.13 1020 7 11 0.00 0.00
4:53 am 04:53 Clear with Mist and Fog 39 3.9 38 3.3 96 96 Calm 30.14 1021 5 8 0.00 0.00
6:53 am 06:53 Clear 38 3.3 36 2.2 93 93 Calm 30.19 1022 10 16 0.00 0.00
7:53 am 07:53 Sunny 40 4.4 40 4.4 100 100 Calm 30.20 1023 8 13 0.00 0.00
8:53 am 08:53 Sunny 48 8.9 44 6.7 86 86 Calm 30.19 1022 9 14 0.00 0.00
9:53 am 09:53 Sunny 55 12.8 44 6.7 67 67 W 6 9 30.19 1023 10 16 0.00 0.00
10:53 am 10:53 Sunny 60 15.6 44 6.7 56 56 SSW 12 19 30.18 1022 10 16 0.00 0.00
11:53 am 11:53 Sunny 62 16.7 44 6.7 52 52 WSW 10 17 30.15 1021 10 16 0.00 0.00
12:53 pm 12:53 Sunny 63 17.2 46 7.8 54 54 WSW 12 19 30.12 1020 10 16 0.00 0.00
1:53 pm 13:53 Sunny 65 18.3 47 8.3 52 52 SSW 12 19 30.08 1019 10 16 0.00 0.00
2:53 pm 14:53 Sunny 66 18.9 43 6.1 43 43 WSW 9 15 30.07 1018 10 16 0.00 0.00
3:53 pm 15:53 Sunny 65 18.3 44 6.7 47 47 SW 7 11 30.05 1018 10 16 0.00 0.00
4:53 pm 16:53 Sunny 63 17.2 43 6.1 48 48 SW 8 13 30.05 1018 10 16 0.00 0.00
5:53 pm 17:53 Clear 56 13.3 44 6.7 65 65 Calm 30.06 1018 10 16 0.00 0.00
6:53 pm 18:53 Clear 56 13.3 46 7.8 70 70 S 3 6 30.05 1018 10 16 0.00 0.00
7:53 pm 19:53 Mostly Clear 55 12.8 45 7.2 69 69 Calm 30.06 1018 10 16 0.00 0.00
8:53 pm 20:53 Mostly Clear 54 12.2 47 8.3 77 77 Calm 30.05 1018 10 16 0.00 0.00
9:53 pm 21:53 Cloudy 54 12.2 49 9.4 83 83 Calm 30.04 1017 10 16 0.00 0.00
10:53 pm 22:53 Cloudy with Light Rain 55 12.8 52 11.1 90 90 Calm 30.02 1017 9 14 0.01 0.25
11:53 pm 23:53 Cloudy 54 12.2 53 11.7 97 97 WNW 3 6 30.01 1016 10 16 0.00 0.00

Powered by AerisWeather